TimeCDT,TemperatureF,Dew PointF,Humidity,Sea Level PressureIn,VisibilityMPH,Wind Direction,Wind SpeedMPH,Gust SpeedMPH,PrecipitationIn,Events,Conditions,WindDirDegrees,DateUTC
12:15 AM,66.2,64.4,94,29.99,3.0,East,5.8,-,N/A,,Overcast,100,2013-10-15 05:15:00
12:35 AM,68.0,64.4,88,29.98,3.0,ESE,8.1,-,N/A,,Overcast,120,2013-10-15 05:35:00
12:55 AM,68.0,64.4,88,29.98,4.0,SE,5.8,-,N/A,,Overcast,140,2013-10-15 05:55:00
1:15 AM,68.0,66.2,94,29.97,2.0,SE,6.9,-,N/A,,Overcast,140,2013-10-15 06:15:00
1:35 AM,68.0,66.2,94,29.97,3.0,SE,6.9,-,N/A,,Mostly Cloudy,140,2013-10-15 06:35:00
1:55 AM,68.0,66.2,94,29.96,2.5,SE,5.8,-,N/A,,Mostly Cloudy,130,2013-10-15 06:55:00
2:15 AM,68.0,66.2,94,29.97,2.5,SE,5.8,-,N/A,,Mostly Cloudy,130,2013-10-15 07:15:00
2:35 AM,68.0,68.0,100,29.97,3.0,SSE,4.6,-,N/A,,Mostly Cloudy,150,2013-10-15 07:35:00
2:55 AM,68.0,68.0,100,29.97,3.0,SSE,4.6,-,N/A,,Mostly Cloudy,150,2013-10-15 07:55:00
3:15 AM,68.0,68.0,100,29.96,3.0,SSE,4.6,-,N/A,,Overcast,150,2013-10-15 08:15:00
3:35 AM,68.0,68.0,100,29.96,2.5,SSE,5.8,-,N/A,,Mostly Cloudy,150,2013-10-15 08:35:00
3:55 AM,68.0,68.0,100,29.95,3.0,SSE,6.9,-,N/A,,Scattered Clouds,150,2013-10-15 08:55:00
4:15 AM,68.0,68.0,100,29.95,3.0,SSE,5.8,-,N/A,,Scattered Clouds,160,2013-10-15 09:15:00
4:35 AM,69.8,68.0,94,29.95,4.0,South,5.8,-,N/A,,Mostly Cloudy,170,2013-10-15 09:35:00
4:55 AM,68.0,68.0,100,29.95,3.0,South,5.8,-,N/A,,Mostly Cloudy,190,2013-10-15 09:55:00
5:15 AM,68.0,68.0,100,29.94,3.0,South,6.9,-,N/A,,Scattered Clouds,180,2013-10-15 10:15:00
5:35 AM,69.8,68.0,94,29.94,4.0,South,8.1,-,N/A,,Scattered Clouds,180,2013-10-15 10:35:00
5:55 AM,69.8,68.0,94,29.94,4.0,South,6.9,-,N/A,,Mostly Cloudy,190,2013-10-15 10:55:00
6:15 AM,69.8,68.0,94,29.94,5.0,SSW,8.1,-,N/A,,Mostly Cloudy,200,2013-10-15 11:15:00
6:35 AM,69.8,68.0,94,29.93,5.0,South,9.2,-,N/A,,Overcast,180,2013-10-15 11:35:00
6:55 AM,69.8,68.0,94,29.94,5.0,South,9.2,-,N/A,,Overcast,190,2013-10-15 11:55:00
7:15 AM,69.8,68.0,94,29.94,5.0,SSW,6.9,-,N/A,,Overcast,210,2013-10-15 12:15:00
7:35 AM,69.8,68.0,94,29.94,3.0,South,10.4,-,N/A,,Overcast,190,2013-10-15 12:35:00
7:55 AM,69.8,68.0,94,29.94,4.0,SSW,9.2,-,N/A,,Overcast,200,2013-10-15 12:55:00
8:15 AM,69.8,68.0,94,29.94,4.0,SSW,11.5,-,0.01,,Overcast,200,2013-10-15 13:15:00
8:35 AM,69.8,68.0,94,29.94,4.0,SSW,9.2,-,0.01,,Overcast,200,2013-10-15 13:35:00
8:55 AM,69.8,68.0,94,29.94,4.0,SSW,11.5,-,0.01,,Overcast,200,2013-10-15 13:55:00
9:15 AM,69.8,68.0,94,29.94,4.0,SSW,9.2,-,N/A,,Overcast,210,2013-10-15 14:15:00
9:35 AM,71.6,69.8,94,29.94,4.0,SSW,11.5,-,N/A,,Overcast,210,2013-10-15 14:35:00
9:55 AM,71.6,69.8,94,29.95,5.0,SSW,11.5,-,N/A,,Overcast,210,2013-10-15 14:55:00
10:15 AM,71.6,69.8,94,29.94,5.0,SSW,13.8,-,N/A,,Overcast,210,2013-10-15 15:15:00
10:35 AM,71.6,69.8,94,29.94,7.0,SW,12.7,-,N/A,,Overcast,220,2013-10-15 15:35:00
10:55 AM,71.6,69.8,94,29.94,10.0,SW,13.8,-,N/A,,Overcast,220,2013-10-15 15:55:00
11:15 AM,73.4,69.8,88,29.94,10.0,SW,13.8,18.4,N/A,,Overcast,220,2013-10-15 16:15:00
11:35 AM,73.4,69.8,88,29.95,10.0,WSW,10.4,-,N/A,,Overcast,240,2013-10-15 16:35:00
11:55 AM,71.6,68.0,88,29.95,10.0,WSW,8.1,-,N/A,,Overcast,250,2013-10-15 16:55:00
12:15 PM,71.6,64.4,78,29.97,4.0,NNW,10.4,24.2,0.01,,Overcast,340,2013-10-15 17:15:00
12:35 PM,68.0,64.4,88,29.97,1.5,North,5.8,-,0.14,,Overcast,350,2013-10-15 17:35:00
12:55 PM,68.0,64.4,88,29.96,4.0,North,4.6,-,0.30,,Scattered Clouds,10,2013-10-15 17:55:00
1:15 PM,68.0,64.4,88,29.97,1.0,Calm,Calm,-,0.15,,Overcast,0,2013-10-15 18:15:00
1:35 PM,68.0,64.4,88,29.95,1.8,North,3.5,-,0.32,,Overcast,360,2013-10-15 18:35:00
1:55 PM,68.0,64.4,88,29.94,4.0,North,5.8,-,0.36,,Mostly Cloudy,350,2013-10-15 18:55:00
2:15 PM,68.0,64.4,88,29.92,2.5,NNE,4.6,-,0.03,,Overcast,30,2013-10-15 19:15:00
2:35 PM,68.0,64.4,88,29.92,10.0,NNE,9.2,-,0.04,,Mostly Cloudy,20,2013-10-15 19:35:00
2:55 PM,68.0,64.4,88,29.93,10.0,North,4.6,-,0.04,,Overcast,10,2013-10-15 19:55:00
3:15 PM,68.0,64.4,88,29.94,4.0,North,3.5,-,0.02,,Overcast,360,2013-10-15 20:15:00
3:35 PM,66.2,64.4,94,29.93,2.5,NNE,6.9,-,0.07,,Unknown,30,2013-10-15 20:35:00
3:55 PM,66.2,64.4,94,29.95,4.0,NNE,3.5,-,0.11,,Scattered Clouds,30,2013-10-15 20:55:00
4:15 PM,66.2,64.4,94,29.95,5.0,North,3.5,-,0.02,,Scattered Clouds,10,2013-10-15 21:15:00
4:35 PM,66.2,64.4,94,29.95,5.0,North,3.5,-,0.03,,Scattered Clouds,10,2013-10-15 21:35:00
4:55 PM,66.2,64.4,94,29.95,10.0,NW,5.8,-,0.03,,Mostly Cloudy,320,2013-10-15 21:55:00
5:15 PM,64.4,62.6,94,29.95,7.0,NNW,6.9,-,N/A,,Overcast,340,2013-10-15 22:15:00
5:35 PM,64.4,60.8,88,29.96,2.0,NNW,8.1,-,0.01,,Overcast,340,2013-10-15 22:35:00
5:55 PM,62.6,60.8,94,29.97,4.0,NNW,9.2,-,0.02,,Overcast,330,2013-10-15 22:55:00
6:15 PM,62.6,60.8,94,29.97,5.0,NNW,6.9,-,0.01,,Overcast,340,2013-10-15 23:15:00
6:35 PM,62.6,60.8,94,29.96,7.0,North,4.6,-,0.02,,Mostly Cloudy,10,2013-10-15 23:35:00
6:55 PM,62.6,60.8,94,29.97,7.0,NNW,4.6,-,0.03,,Mostly Cloudy,340,2013-10-15 23:55:00
7:15 PM,62.6,60.8,94,29.98,5.0,NNW,6.9,-,0.02,,Mostly Cloudy,340,2013-10-16 00:15:00
7:55 PM,60.8,59.0,94,29.99,4.0,NNW,8.1,-,0.07,,Overcast,330,2013-10-16 00:55:00
8:15 PM,60.8,59.0,94,29.99,4.0,NNW,5.8,-,0.02,,Overcast,340,2013-10-16 01:15:00
8:35 PM,59.0,59.0,100,29.99,3.0,North,6.9,-,0.05,,Overcast,350,2013-10-16 01:35:00
8:55 PM,59.0,57.2,94,30.00,5.0,NNW,6.9,-,0.06,,Overcast,340,2013-10-16 01:55:00
9:15 PM,59.0,57.2,94,30.00,5.0,NNW,8.1,-,0.01,,Overcast,340,2013-10-16 02:15:00
9:35 PM,59.0,57.2,94,30.00,3.0,NNW,6.9,-,0.03,,Overcast,340,2013-10-16 02:35:00
9:55 PM,59.0,55.4,88,30.01,4.0,North,4.6,-,0.04,,Overcast,350,2013-10-16 02:55:00
10:15 PM,59.0,55.4,88,30.03,2.5,NNW,5.8,-,0.04,,Overcast,330,2013-10-16 03:15:00
10:35 PM,59.0,55.4,88,30.03,1.5,NNW,4.6,-,0.09,,Overcast,330,2013-10-16 03:35:00
10:55 PM,59.0,55.4,88,30.02,3.0,North,3.5,-,0.13,,Overcast,350,2013-10-16 03:55:00
11:15 PM,59.0,55.4,88,30.02,4.0,WNW,4.6,-,0.02,,Mostly Cloudy,290,2013-10-16 04:15:00
11:35 PM,57.2,55.4,94,30.01,5.0,NNW,6.9,-,0.04,,Overcast,340,2013-10-16 04:35:00
11:55 PM,55.4,55.4,100,30.00,10.0,NNW,6.9,-,0.04,,Overcast,340,2013-10-16 04:55:00